Total_Precipitation_Accumulation
0.00 0.01 0.01 0.01 0.02 0.02 0.04 0.06 0.10 0.13 0.11 0.14 0.27 0.53 0.79 0.89 1.16 1.13 1.15 1.30 1.46 1.60 1.90 2.33 2.63 3.19 3.80 4.17 4.56 4.70 4.69 4.56 4.34 3.92 3.57 3.31 3.09 2.93 2.69 2.51 2.43 2.29 2.18 2.29
0.01 0.03 0.02 0.02 0.02 0.02 0.05 0.07 0.10 0.15 0.15 0.20 0.37 0.59 0.89 0.90 0.98 1.04 0.96 0.99 1.18 1.55 1.81 2.33 2.63 2.84 3.32 3.83 4.28 4.57 4.71 4.59 4.19 3.76 3.52 3.37 3.31 2.94 2.64 2.61 2.64 2.46 2.47 2.49
0.02 0.02 0.02 0.02 0.02 0.04 0.06 0.07 0.10 0.10 0.14 0.27 0.40 0.79 1.07 0.96 0.92 0.94 0.93 0.99 1.17 1.63 2.07 2.33 2.53 2.69 2.97 3.36 3.67 3.79 3.94 3.90 3.73 3.73 3.71 3.62 3.56 3.10 2.96 2.94 2.91 2.74 2.72 2.70
0.02 0.02 0.02 0.04 0.05 0.05 0.08 0.07 0.06 0.07 0.14 0.34 0.40 0.86 1.31 1.15 1.01 1.06 1.12 1.07 1.35 1.68 1.71 1.87 2.18 2.50 2.67 2.91 3.25 3.48 3.54 3.49 3.39 3.47 3.48 3.34 3.12 2.94 3.04 3.30 3.26 2.99 2.75 2.56
0.03 0.03 0.04 0.05 0.04 0.05 0.07 0.06 0.06 0.09 0.16 0.33 0.42 0.65 1.19 1.25 1.25 1.14 1.16 1.28 1.49 1.52 1.46 1.57 1.77 2.09 2.20 2.51 2.80 3.05 3.31 3.40 3.33 3.36 3.28 3.27 3.14 3.13 3.17 3.12 3.07 2.82 2.58 2.26
0.04 0.04 0.04 0.03 0.03 0.04 0.05 0.07 0.12 0.19 0.31 0.66 0.52 0.54 1.00 1.18 1.03 0.97 1.08 1.11 1.30 1.30 1.31 1.49 1.65 1.88 2.00 2.15 2.27 2.41 2.63 2.90 3.05 3.09 3.05 3.07 3.00 2.99 2.91 2.79 2.62 2.39 2.20 1.93
0.09 0.10 0.08 0.05 0.05 0.06 0.06 0.10 0.39 0.74 0.98 1.03 0.56 0.60 1.06 0.93 0.74 0.76 0.95 1.00 1.06 1.03 1.01 1.23 1.37 1.47 1.62 1.75 1.84 1.96 2.16 2.49 2.63 2.62 2.59 2.71 2.76 2.78 2.68 2.62 2.43 2.20 1.93 1.64
0.16 0.21 0.12 0.07 0.07 0.08 0.08 0.10 0.34 0.62 0.75 0.82 0.67 1.02 1.46 0.98 0.76 0.81 0.85 0.85 0.83 0.80 0.77 0.93 1.14 1.35 1.42 1.46 1.58 1.72 1.94 2.17 2.26 2.21 2.32 2.52 2.59 2.67 2.55 2.56 2.31 2.05 1.84 1.74
0.11 0.11 0.08 0.07 0.11 0.11 0.09 0.08 0.15 0.28 0.37 0.60 0.84 1.14 1.19 0.74 0.65 0.74 0.77 0.77 0.84 0.81 0.75 0.82 0.90 1.07 1.13 1.19 1.31 1.46 1.81 2.08 2.17 2.20 2.33 2.41 2.48 2.46 2.36 2.27 2.10 1.90 1.91 1.86
0.04 0.06 0.08 0.07 0.09 0.11 0.10 0.11 0.16 0.23 0.37 0.60 0.81 1.11 1.26 0.89 0.72 0.53 0.49 0.53 0.51 0.53 0.54 0.61 0.66 0.76 0.89 1.10 1.36 1.52 1.65 1.94 2.06 2.06 2.13 2.14 2.29 2.24 2.13 2.07 1.91 1.77 1.68 1.73
0.04 0.04 0.07 0.08 0.11 0.13 0.13 0.12 0.14 0.17 0.22 0.41 0.81 1.04 0.84 0.70 0.59 0.54 0.50 0.54 0.47 0.40 0.42 0.49 0.62 0.76 0.93 1.08 1.24 1.34 1.40 1.55 1.69 1.79 1.96 1.93 1.91 1.99 2.03 1.90 1.73 1.67 1.64 1.68
0.04 0.04 0.06 0.13 0.18 0.16 0.14 0.12 0.13 0.18 0.18 0.26 0.47 0.68 0.55 0.61 0.60 0.52 0.54 0.60 0.60 0.56 0.50 0.55 0.72 0.89 1.01 1.14 1.15 1.17 1.23 1.36 1.50 1.66 1.86 1.95 1.96 2.00 1.97 1.79 1.65 1.63 1.64 1.70
0.05 0.06 0.11 0.28 0.40 0.27 0.16 0.13 0.13 0.14 0.12 0.20 0.41 0.65 0.46 0.41 0.50 0.65 0.90 1.07 0.86 0.68 0.63 0.73 0.81 0.84 0.87 0.94 1.02 1.00 1.02 1.19 1.36 1.58 1.91 2.08 2.08 2.02 1.94 1.76 1.56 1.52 1.57 1.68
0.08 0.06 0.10 0.30 0.43 0.36 0.26 0.17 0.13 0.11 0.14 0.17 0.26 0.52 0.48 0.47 0.52 0.68 0.86 0.81 0.80 0.75 0.69 0.80 0.81 0.87 0.86 0.82 0.90 0.89 0.94 1.04 1.26 1.46 1.65 1.77 1.69 1.65 1.66 1.59 1.50 1.45 1.48 1.56
0.12 0.08 0.07 0.12 0.21 0.24 0.24 0.22 0.18 0.15 0.12 0.22 0.26 0.37 0.45 0.48 0.61 0.78 0.92 0.92 0.88 0.72 0.63 0.69 0.70 0.76 0.79 0.79 0.86 0.81 0.79 0.84 0.98 1.16 1.28 1.42 1.43 1.41 1.40 1.46 1.51 1.53 1.62 1.62
0.18 0.18 0.14 0.16 0.19 0.24 0.27 0.25 0.19 0.13 0.12 0.16 0.24 0.38 0.50 0.57 0.67 0.74 0.71 0.65 0.59 0.54 0.45 0.43 0.59 0.68 0.64 0.63 0.66 0.61 0.66 0.79 0.94 1.04 1.15 1.35 1.48 1.51 1.51 1.55 1.63 1.68 1.68 1.68
0.24 0.27 0.26 0.25 0.24 0.25 0.34 0.33 0.24 0.15 0.14 0.20 0.32 0.49 0.65 0.55 0.55 0.62 0.63 0.61 0.57 0.54 0.39 0.34 0.41 0.55 0.55 0.56 0.56 0.66 0.79 0.91 1.02 1.16 1.30 1.49 1.59 1.68 1.69 1.65 1.74 1.71 1.71 1.75
0.40 0.41 0.33 0.31 0.42 0.51 0.37 0.30 0.29 0.29 0.26 0.28 0.40 0.42 0.56 0.56 0.61 0.73 0.73 0.71 0.55 0.49 0.39 0.35 0.36 0.41 0.48 0.54 0.61 0.75 1.01 1.22 1.25 1.39 1.58 1.69 1.80 1.77 1.75 1.74 1.75 1.82 1.89 1.91
0.33 0.49 0.47 0.47 0.60 0.52 0.44 0.32 0.36 0.41 0.54 0.55 0.64 0.61 0.56 0.56 0.66 0.75 0.65 0.57 0.57 0.47 0.43 0.42 0.41 0.48 0.57 0.61 0.65 0.86 1.08 1.30 1.43 1.49 1.62 1.79 1.89 1.93 1.96 1.98 1.92 1.96 2.04 1.99
0.34 0.50 0.62 0.59 0.74 0.73 0.61 0.48 0.47 0.58 1.02 0.86 0.79 0.81 0.69 0.64 0.76 0.83 0.79 0.72 0.66 0.58 0.54 0.53 0.54 0.63 0.77 0.86 0.90 1.03 1.15 1.27 1.44 1.53 1.65 1.82 2.03 2.09 2.14 2.27 2.33 2.25 2.20 2.08
0.63 0.71 0.74 0.74 0.80 0.87 0.74 0.68 0.71 1.11 1.38 1.07 0.90 0.86 0.83 0.92 0.93 0.89 0.80 0.80 0.74 0.63 0.64 0.62 0.64 0.75 0.94 1.09 1.15 1.24 1.36 1.47 1.48 1.56 1.69 1.88 2.04 2.13 2.19 2.34 2.43 2.41 2.38 2.36
0.83 0.89 0.88 0.89 1.07 1.24 0.87 0.83 1.24 1.49 1.25 1.24 1.20 1.11 1.00 0.98 0.94 0.89 0.80 0.77 0.72 0.70 0.74 0.74 0.79 0.93 1.15 1.32 1.28 1.32 1.38 1.42 1.45 1.47 1.58 1.70 1.86 1.91 2.00 2.23 2.33 2.40 2.44 2.40
0.90 0.99 1.06 1.18 1.30 1.20 1.01 1.09 1.26 1.39 1.55 1.46 1.33 1.31 1.14 1.11 1.02 0.92 0.83 0.79 0.76 0.72 0.78 0.81 0.87 1.07 1.32 1.46 1.47 1.52 1.40 1.45 1.48 1.52 1.63 1.76 1.84 1.91 2.03 2.12 2.13 2.20 2.27 2.24
1.04 0.93 1.12 1.35 1.40 1.32 1.18 1.06 0.99 1.12 1.23 1.22 1.21 1.20 1.14 1.12 1.06 0.97 0.85 0.78 0.77 0.77 0.73 0.77 0.86 0.94 1.03 1.22 1.39 1.47 1.50 1.55 1.56 1.59 1.63 1.69 1.81 1.84 1.87 1.98 2.07 2.16 2.27 2.35
1.23 1.10 1.32 1.60 1.51 1.39 1.40 1.29 1.16 1.23 1.30 1.21 1.15 1.12 1.12 1.10 1.04 0.91 0.86 0.83 0.81 0.78 0.73 0.76 0.85 0.86 0.90 0.98 1.09 1.17 1.26 1.37 1.42 1.47 1.52 1.56 1.58 1.67 1.74 1.79 1.86 1.88 1.97 1.98
1.33 1.29 1.58 1.91 1.67 1.51 1.48 1.37 1.26 1.30 1.28 1.34 1.41 1.37 1.16 1.05 1.13 1.05 0.92 0.81 0.79 0.79 0.77 0.81 0.83 0.82 0.84 0.88 1.03 1.14 1.22 1.35 1.46 1.54 1.56 1.48 1.45 1.50 1.54 1.56 1.56 1.55 1.49 1.49